Date String (YYYY-MM-DD hh:mm:ss) UTC,Instrument flags,Ambient pressure (hPa),Sample flow (lpm),Bypass flow (lpm),Sample temperature (°C),Ambient temperature (°C),ASC tube jacket temperature (°C),LED temperature (°C),Box temperature (°C),Sample RH (%),Span deviation,Mass concentration (μg/m³),Mass concentration (μg/m³),Mass concentration (μg/m³)
DateTimeUTC,F1_M11,P_M11,Q1_M11,Q2_M11,T1_M11,T2_M11,T3_M11,T4_M11,T5_M11,U1_M11,ZSPAN_M11,X0_M11,X2_M11,X1_M11
2022-08-09 15:00:00,,0831.7,5.00,0.00,29.8,28.4,00.0,38.5,31.7,29.0,0000.0,0012.18,0005.79,0004.75
2022-08-09 15:01:00,,0831.7,5.00,0.00,29.8,27.7,00.0,38.5,31.5,29.7,0000.0,0012.62,0005.80,0004.75
2022-08-09 15:02:00,,0831.7,4.99,0.00,29.7,27.5,00.0,38.5,31.5,29.4,0000.0,0012.99,0005.79,0004.76
2022-08-09 15:03:00,,0831.7,5.01,0.00,29.7,27.5,00.0,38.5,31.4,29.1,0000.0,0013.65,0005.76,0004.77
2022-08-09 15:04:00,,0831.7,4.99,0.00,29.6,27.6,00.0,38.5,31.4,29.4,0000.0,0013.19,0005.72,0004.75
2022-08-09 15:05:00,,0831.7,5.01,0.00,29.6,27.8,00.0,38.5,31.4,28.8,0000.0,0013.14,0005.73,0004.76
2022-08-09 15:06:00,,0831.7,4.99,0.00,29.6,27.9,00.0,38.5,31.5,29.5,0000.0,0013.23,0005.72,0004.76
2022-08-09 15:07:00,,0831.7,5.00,0.00,29.6,28.1,00.0,38.5,31.5,28.6,0000.0,0014.27,0005.73,0004.78
2022-08-09 15:08:00,,0831.7,5.00,0.00,29.6,28.2,00.0,38.5,31.6,28.3,0000.0,0014.07,0005.69,0004.77
2022-08-09 15:09:00,,0831.8,5.00,0.00,29.7,28.3,00.0,38.5,31.6,28.4,0000.0,0013.91,0005.69,0004.77
2022-08-09 15:10:00,,0831.8,5.00,0.00,29.7,28.4,00.0,38.5,31.6,28.6,0000.0,0013.55,0005.65,0004.77
2022-08-09 15:11:00,,0831.8,5.00,0.00,29.7,28.5,00.0,38.5,31.7,29.2,0000.0,0013.29,0005.64,0004.77
2022-08-09 15:12:00,,0831.8,5.00,0.00,29.7,28.6,00.0,38.5,31.7,29.6,0000.0,0012.82,0005.66,0004.78
2022-08-09 15:13:00,,0831.8,5.00,0.00,29.8,28.7,00.0,38.5,31.7,28.7,0000.0,0012.29,0005.66,0004.78
2022-08-09 15:14:00,,0831.8,5.00,0.00,29.8,28.6,00.0,38.5,31.7,28.3,0000.0,0011.91,0005.70,0004.77
2022-08-09 15:15:00,,0831.7,5.00,0.00,29.8,28.0,00.0,38.5,31.5,28.8,0000.0,0011.77,0005.74,0004.78
2022-08-09 15:16:00,,0831.7,4.99,0.00,29.7,27.5,00.0,38.5,31.4,29.4,0000.0,0011.73,0005.76,0004.78
2022-08-09 15:17:00,,0831.7,5.01,0.00,29.7,27.5,00.0,38.4,31.4,30.1,0000.0,0011.77,0005.81,0004.80
2022-08-09 15:18:00,,0831.7,4.99,0.00,29.6,27.6,00.0,38.4,31.4,30.6,0000.0,0011.43,0005.80,0004.81
2022-08-09 15:19:00,,0831.7,5.01,0.00,29.6,27.7,00.0,38.4,31.4,29.5,0000.0,0010.95,0005.75,0004.82
2022-08-09 15:20:00,,0831.7,4.99,0.00,29.6,27.9,00.0,38.4,31.4,29.0,0000.0,0010.69,0005.76,0004.82
2022-08-09 15:21:00,,0831.7,5.00,0.00,29.6,28.0,00.0,38.4,31.5,29.7,0000.0,0010.73,0005.78,0004.83
2022-08-09 15:22:00,,0831.7,5.01,0.00,29.6,28.1,00.0,38.4,31.5,29.7,0000.0,0010.68,0005.74,0004.82
2022-08-09 15:23:00,,0831.7,4.99,0.00,29.6,28.3,00.0,38.4,31.5,28.8,0000.0,0011.30,0005.76,0004.82
2022-08-09 15:24:00,,0831.7,5.01,0.00,29.6,28.4,00.0,38.4,31.6,30.4,0000.0,0011.17,0005.76,0004.81
2022-08-09 15:25:00,,0831.7,4.99,0.00,29.7,28.5,00.0,38.5,31.6,29.4,0000.0,0011.05,0005.75,0004.81
2022-08-09 15:26:00,,0831.7,5.00,0.00,29.7,28.6,00.0,38.5,31.7,30.3,0000.0,0010.86,0005.71,0004.80
2022-08-09 15:27:00,,0831.7,5.00,0.00,29.7,28.6,00.0,38.5,31.7,30.4,0000.0,0010.98,0005.71,0004.80
2022-08-09 15:28:00,,0831.7,5.01,0.00,29.7,28.1,00.0,38.4,31.6,30.0,0000.0,0010.88,0005.64,0004.79
2022-08-09 15:29:00,,0831.7,4.99,0.00,29.7,27.6,00.0,38.4,31.4,30.2,0000.0,0010.35,0005.64,0004.79
2022-08-09 15:30:00,,0831.7,5.01,0.00,29.7,27.5,00.0,38.4,31.4,30.9,0000.0,0010.82,0005.63,0004.78
2022-08-09 15:31:00,,0831.7,4.99,0.00,29.6,27.5,00.0,38.4,31.4,31.6,0000.0,0011.27,0005.59,0004.79
2022-08-09 15:32:00,,0831.7,5.01,0.00,29.6,27.6,00.0,38.4,31.4,31.5,0000.0,0011.46,0005.59,0004.79
2022-08-09 15:33:00,,0831.7,5.00,0.00,29.6,27.8,00.0,38.4,31.4,31.0,0000.0,0011.56,0005.63,0004.79
2022-08-09 15:34:00,,0831.7,4.99,0.00,29.6,28.0,00.0,38.4,31.4,31.2,0000.0,0011.16,0005.68,0004.79
2022-08-09 15:35:00,,0831.7,5.01,0.00,29.6,28.1,00.0,38.4,31.5,31.5,0000.0,0011.38,0005.71,0004.80
2022-08-09 15:36:00,,0831.7,5.01,0.00,29.6,28.2,00.0,38.4,31.5,31.6,0000.0,0011.41,0005.69,0004.81
2022-08-09 15:37:00,,0831.7,5.00,0.00,29.6,28.4,00.0,38.4,31.6,31.5,0000.0,0011.82,0005.69,0004.82
2022-08-09 15:38:00,,0831.7,4.99,0.00,29.7,28.5,00.0,38.4,31.6,30.6,0000.0,0012.12,0005.67,0004.82
2022-08-09 15:39:00,,0831.7,5.01,0.00,29.7,28.6,00.0,38.4,31.7,30.9,0000.0,0011.96,0005.66,0004.82
2022-08-09 15:40:00,,0831.7,5.00,0.00,29.7,28.7,00.0,38.5,31.7,30.7,0000.0,0011.96,0005.65,0004.82
2022-08-09 15:41:00,,0831.7,5.01,0.00,29.7,28.4,00.0,38.4,31.7,31.5,0000.0,0011.60,0005.66,0004.83
2022-08-09 15:42:00,,0831.7,4.99,0.00,29.7,27.8,00.0,38.4,31.5,31.0,0000.0,0011.36,0005.69,0004.84
2022-08-09 15:43:00,,0831.7,4.99,0.00,29.7,27.5,00.0,38.4,31.4,30.3,0000.0,0011.10,0005.69,0004.84
2022-08-09 15:44:00,,0831.7,5.01,0.00,29.6,27.5,00.0,38.4,31.4,31.7,0000.0,0010.98,0005.66,0004.85
2022-08-09 15:45:00,,0831.7,4.99,0.00,29.6,27.7,00.0,38.4,31.4,32.2,0000.0,0010.75,0005.62,0004.85
2022-08-09 15:46:00,,0831.7,5.01,0.00,29.6,27.8,00.0,38.4,31.4,32.0,0000.0,0010.57,0005.59,0004.85
2022-08-09 15:47:00,,0831.7,4.99,0.00,29.6,28.0,00.0,38.4,31.4,31.1,0000.0,0010.76,0005.63,0004.84
2022-08-09 15:48:00,,0831.7,5.01,0.00,29.6,28.1,00.0,38.4,31.5,31.2,0000.0,0010.59,0005.67,0004.84
2022-08-09 15:49:00,,0831.7,5.00,0.00,29.6,28.3,00.0,38.4,31.5,31.9,0000.0,0010.22,0005.69,0004.84
2022-08-09 15:50:00,,0831.7,5.00,0.00,29.6,28.4,00.0,38.4,31.6,32.3,0000.0,0010.60,0005.73,0004.85
2022-08-09 15:51:00,,0831.7,4.99,0.00,29.7,28.5,00.0,38.4,31.7,32.4,0000.0,0011.06,0005.78,0004.85
2022-08-09 15:52:00,,0831.7,5.00,0.00,29.7,28.6,00.0,38.4,31.7,32.5,0000.0,0011.25,0005.80,0004.86
2022-08-09 15:53:00,,0831.7,5.01,0.00,29.7,28.2,00.0,38.4,31.5,32.3,0000.0,0011.08,0005.83,0004.88
2022-08-09 15:54:00,,0831.7,4.99,0.00,29.7,27.7,00.0,38.4,31.4,33.0,0000.0,0011.10,0005.86,0004.88
2022-08-09 15:55:00,,0831.7,5.00,0.00,29.6,27.5,00.0,38.4,31.4,32.6,0000.0,0011.55,0005.88,0004.89
2022-08-09 15:56:00,,0831.7,5.00,0.00,29.6,27.6,00.0,38.4,31.4,33.3,0000.0,0011.87,0005.89,0004.89
2022-08-09 15:57:00,,0831.7,5.01,0.00,29.5,27.7,00.0,38.4,31.4,33.9,0000.0,0012.38,0005.88,0004.90
2022-08-09 15:58:00,,0831.7,4.99,0.00,29.5,27.9,00.0,38.3,31.4,33.5,0000.0,0012.44,0005.85,0004.91
2022-08-09 15:59:00,,0831.7,5.01,0.00,29.6,28.0,00.0,38.4,31.4,32.6,0000.0,0012.34,0005.85,0004.91
